owner,sensor,date,latitude,longitude,vertical_datum,mass_concentration_of_oxygen_in_sea_water,qcFlag 
SCCF RECON,ioos:station:SCCF:11:1,2019-01-01T05:00:00Z,26.4679,-82.0631,1.23,6.17,1111122 
SCCF RECON,ioos:station:SCCF:11:1,2019-01-01T06:00:00Z,26.4679,-82.0631,1.091,5.85,1111122 
SCCF RECON,ioos:station:SCCF:11:1,2019-01-01T07:00:00Z,26.4679,-82.0631,0.95,5.58,1111122 
SCCF RECON,ioos:station:SCCF:11:1,2019-01-01T08:00:00Z,26.4679,-82.0631,0.83,5.3,1111122 
SCCF RECON,ioos:station:SCCF:11:1,2019-01-01T09:00:00Z,26.4679,-82.0631,0.74,5.15,1111122 
SCCF RECON,ioos:station:SCCF:11:1,2019-01-01T10:00:00Z,26.4679,-82.0631,0.73,5.08,1111122 
SCCF RECON,ioos:station:SCCF:11:1,2019-01-01T11:00:00Z,26.4679,-82.0631,0.83,4.96,1111122 
SCCF RECON,ioos:station:SCCF:11:1,2019-01-01T12:00:00Z,26.4679,-82.0631,0.96,5.34,1111122 
SCCF RECON,ioos:station:SCCF:11:1,2019-01-01T14:00:00Z,26.4679,-82.0631,1.101,5.6,1111122 
SCCF RECON,ioos:station:SCCF:11:1,2019-01-01T15:00:00Z,26.4679,-82.0631,1.163,5.61,1111122 
SCCF RECON,ioos:station:SCCF:11:1,2019-01-01T16:00:00Z,26.4679,-82.0631,1.2,5.8,1111122 
SCCF RECON,ioos:station:SCCF:11:1,2019-01-01T17:00:00Z,26.4679,-82.0631,1.188,5.67,1111122 
SCCF RECON,ioos:station:SCCF:11:1,2019-01-01T18:00:00Z,26.4679,-82.0631,1.127,5.95,1111122 
SCCF RECON,ioos:station:SCCF:11:1,2019-01-01T19:00:00Z,26.4679,-82.0631,1.063,6.49,1111122 
SCCF RECON,ioos:station:SCCF:11:1,2019-01-01T20:00:00Z,26.4679,-82.0631,1.019,6.56,1111122 
SCCF RECON,ioos:station:SCCF:11:1,2019-01-01T21:00:00Z,26.4679,-82.0631,1.016,6.42,1111122 
SCCF RECON,ioos:station:SCCF:11:1,2019-01-01T22:00:00Z,26.4679,-82.0631,1.08,6.67,1111122 
SCCF RECON,ioos:station:SCCF:11:1,2019-01-01T23:00:00Z,26.4679,-82.0631,1.166,6.48,1111122 
SCCF RECON,ioos:station:SCCF:11:1,2019-01-02T05:00:00Z,26.4679,-82.0631,1.22,6.26,1111122 
SCCF RECON,ioos:station:SCCF:11:1,2019-01-02T06:00:00Z,26.4679,-82.0631,1.071,5.68,1111122 
SCCF RECON,ioos:station:SCCF:11:1,2019-01-02T07:00:00Z,26.4679,-82.0631,0.921,5.24,1111122 
SCCF RECON,ioos:station:SCCF:11:1,2019-01-02T08:00:00Z,26.4679,-82.0631,0.793,5.05,1111122 
SCCF RECON,ioos:station:SCCF:11:1,2019-01-02T09:00:00Z,26.4679,-82.0631,0.69,4.88,1111122 
SCCF RECON,ioos:station:SCCF:11:1,2019-01-02T10:00:00Z,26.4679,-82.0631,0.62,4.65,1111122 
SCCF RECON,ioos:station:SCCF:11:1,2019-01-02T11:00:00Z,26.4679,-82.0631,0.63,4.88,1111122 
SCCF RECON,ioos:station:SCCF:11:1,2019-01-02T12:00:00Z,26.4679,-82.0631,0.75,4.58,1111122 
SCCF RECON,ioos:station:SCCF:11:1,2019-01-02T13:00:00Z,26.4679,-82.0631,0.891,4.93,1111122 
SCCF RECON,ioos:station:SCCF:11:1,2019-01-02T14:00:00Z,26.4679,-82.0631,0.99,5.3,1111122 
SCCF RECON,ioos:station:SCCF:11:1,2019-01-02T15:00:00Z,26.4679,-82.0631,1.08,5.46,1111122 
SCCF RECON,ioos:station:SCCF:11:1,2019-01-02T16:00:00Z,26.4679,-82.0631,1.149,5.36,1111122 
SCCF RECON,ioos:station:SCCF:11:1,2019-01-02T17:00:00Z,26.4679,-82.0631,1.177,5.97,1111122 
SCCF RECON,ioos:station:SCCF:11:1,2019-01-02T18:00:00Z,26.4679,-82.0631,1.141,6.27,1111122 
SCCF RECON,ioos:station:SCCF:11:1,2019-01-02T19:00:00Z,26.4679,-82.0631,1.077,5.93,1111122 
SCCF RECON,ioos:station:SCCF:11:1,2019-01-02T20:00:00Z,26.4679,-82.0631,1.053,6.54,1111122 
SCCF RECON,ioos:station:SCCF:11:1,2019-01-02T21:00:00Z,26.4679,-82.0631,1.041,6.08,1111122 
SCCF RECON,ioos:station:SCCF:11:1,2019-01-02T22:00:00Z,26.4679,-82.0631,1.054,6.64,1111122 
SCCF RECON,ioos:station:SCCF:11:1,2019-01-02T23:00:00Z,26.4679,-82.0631,1.12,6.44,1111122 
SCCF RECON,ioos:station:SCCF:11:1,2019-01-03T05:00:00Z,26.4679,-82.0631,1.32,5.21,1111122 
SCCF RECON,ioos:station:SCCF:11:1,2019-01-03T06:00:00Z,26.4679,-82.0631,1.2,5.72,1111122 
SCCF RECON,ioos:station:SCCF:11:1,2019-01-03T07:00:00Z,26.4679,-82.0631,1.05,5.18,1111122 
SCCF RECON,ioos:station:SCCF:11:1,2019-01-03T08:00:00Z,26.4679,-82.0631,0.908,5.07,1111122 
SCCF RECON,ioos:station:SCCF:11:1,2019-01-03T09:00:00Z,26.4679,-82.0631,0.761,4.85,1111122 
SCCF RECON,ioos:station:SCCF:11:1,2019-01-03T10:00:00Z,26.4679,-82.0631,0.641,4.43,1111122 
SCCF RECON,ioos:station:SCCF:11:1,2019-01-03T11:00:00Z,26.4679,-82.0631,0.57,4.19,1111122 
SCCF RECON,ioos:station:SCCF:11:1,2019-01-03T12:00:00Z,26.4679,-82.0631,0.618,4.37,1111122 
SCCF RECON,ioos:station:SCCF:11:1,2019-01-03T13:00:00Z,26.4679,-82.0631,0.742,4.38,1111122 
SCCF RECON,ioos:station:SCCF:11:1,2019-01-03T14:00:00Z,26.4679,-82.0631,0.89,4.68,1111122 
SCCF RECON,ioos:station:SCCF:11:1,2019-01-03T15:00:00Z,26.4679,-82.0631,0.99,4.77,1111122 
SCCF RECON,ioos:station:SCCF:11:1,2019-01-03T16:00:00Z,26.4679,-82.0631,1.064,4.88,1111122 
SCCF RECON,ioos:station:SCCF:11:1,2019-01-03T17:00:00Z,26.4679,-82.0631,1.12,5.25,1111122 
SCCF RECON,ioos:station:SCCF:11:1,2019-01-03T18:00:00Z,26.4679,-82.0631,1.109,5.13,1111122 
SCCF RECON,ioos:station:SCCF:11:1,2019-01-03T19:00:00Z,26.4679,-82.0631,1.082,5.37,1111122 
SCCF RECON,ioos:station:SCCF:11:1,2019-01-03T20:00:00Z,26.4679,-82.0631,1.069,5.34,1111122 
SCCF RECON,ioos:station:SCCF:11:1,2019-01-03T21:00:00Z,26.4679,-82.0631,1.01,6.52,1111122 
SCCF RECON,ioos:station:SCCF:11:1,2019-01-03T22:00:00Z,26.4679,-82.0631,0.963,6.62,1111122 
SCCF RECON,ioos:station:SCCF:11:1,2019-01-03T23:00:00Z,26.4679,-82.0631,0.978,5.75,1111122 
SCCF RECON,ioos:station:SCCF:11:1,2019-01-04T05:00:00Z,26.4679,-82.0631,1.363,5.13,1111122 
SCCF RECON,ioos:station:SCCF:11:1,2019-01-04T06:00:00Z,26.4679,-82.0631,1.27,5.43,1111122 
SCCF RECON,ioos:station:SCCF:11:1,2019-01-04T07:00:00Z,26.4679,-82.0631,1.12,4.89,1111122 
SCCF RECON,ioos:station:SCCF:11:1,2019-01-04T08:00:00Z,26.4679,-82.0631,0.99,4.83,1111122 
SCCF RECON,ioos:station:SCCF:11:1,2019-01-04T09:00:00Z,26.4679,-82.0631,0.845,4.48,1111122 
SCCF RECON,ioos:station:SCCF:11:1,2019-01-04T10:00:00Z,26.4679,-82.0631,0.719,4.22,1111122 
SCCF RECON,ioos:station:SCCF:11:1,2019-01-04T11:00:00Z,26.4679,-82.0631,0.62,4.02,1111122 
SCCF RECON,ioos:station:SCCF:11:1,2019-01-04T12:00:00Z,26.4679,-82.0631,0.59,4.15,1111122 
SCCF RECON,ioos:station:SCCF:11:1,2019-01-04T13:00:00Z,26.4679,-82.0631,0.681,3.95,1111122 
SCCF RECON,ioos:station:SCCF:11:1,2019-01-04T14:00:00Z,26.4679,-82.0631,0.829,4.64,1111122 
SCCF RECON,ioos:station:SCCF:11:1,2019-01-04T15:00:00Z,26.4679,-82.0631,0.981,4.77,1111122 
SCCF RECON,ioos:station:SCCF:11:1,2019-01-04T16:00:00Z,26.4679,-82.0631,1.111,5.12,1111122 
SCCF RECON,ioos:station:SCCF:11:1,2019-01-04T17:00:00Z,26.4679,-82.0631,1.202,4.74,1111122 
SCCF RECON,ioos:station:SCCF:11:1,2019-01-04T18:00:00Z,26.4679,-82.0631,1.237,4.87,1111122 
SCCF RECON,ioos:station:SCCF:11:1,2019-01-04T19:00:00Z,26.4679,-82.0631,1.247,4.99,1111122 
SCCF RECON,ioos:station:SCCF:11:1,2019-01-04T20:00:00Z,26.4679,-82.0631,1.211,5.19,1111122 
SCCF RECON,ioos:station:SCCF:11:1,2019-01-04T21:00:00Z,26.4679,-82.0631,1.17,5.66,1111122 
SCCF RECON,ioos:station:SCCF:11:1,2019-01-04T22:00:00Z,26.4679,-82.0631,1.135,5.74,1111122 
SCCF RECON,ioos:station:SCCF:11:1,2019-01-04T23:00:00Z,26.4679,-82.0631,1.11,5.84,1111122 
SCCF RECON,ioos:station:SCCF:11:1,2019-01-05T05:00:00Z,26.4679,-82.0631,1.446,4.87,1111122 
SCCF RECON,ioos:station:SCCF:11:1,2019-01-05T06:00:00Z,26.4679,-82.0631,1.369,5.05,1111122 
SCCF RECON,ioos:station:SCCF:11:1,2019-01-05T07:00:00Z,26.4679,-82.0631,1.223,4.8,1111122 
SCCF RECON,ioos:station:SCCF:11:1,2019-01-05T08:00:00Z,26.4679,-82.0631,1.06,4.47,1111122 
SCCF RECON,ioos:station:SCCF:11:1,2019-01-05T09:00:00Z,26.4679,-82.0631,0.92,4.42,1111122 
SCCF RECON,ioos:station:SCCF:11:1,2019-01-05T10:00:00Z,26.4679,-82.0631,0.8,4.3,1111122 
SCCF RECON,ioos:station:SCCF:11:1,2019-01-05T11:00:00Z,26.4679,-82.0631,0.69,4.2,1111122 
SCCF RECON,ioos:station:SCCF:11:1,2019-01-05T12:00:00Z,26.4679,-82.0631,0.589,4.16,1111122 
SCCF RECON,ioos:station:SCCF:11:1,2019-01-05T13:00:00Z,26.4679,-82.0631,0.571,4.16,1111122 
SCCF RECON,ioos:station:SCCF:11:1,2019-01-05T14:00:00Z,26.4679,-82.0631,0.69,4.24,1111122 
SCCF RECON,ioos:station:SCCF:11:1,2019-01-05T15:00:00Z,26.4679,-82.0631,0.861,4.52,1111122 
SCCF RECON,ioos:station:SCCF:11:1,2019-01-05T16:00:00Z,26.4679,-82.0631,1.02,4.76,1111122 
SCCF RECON,ioos:station:SCCF:11:1,2019-01-05T17:00:00Z,26.4679,-82.0631,1.119,4.73,1111122 
SCCF RECON,ioos:station:SCCF:11:1,2019-01-05T18:00:00Z,26.4679,-82.0631,1.218,4.89,1111122 
SCCF RECON,ioos:station:SCCF:11:1,2019-01-05T19:00:00Z,26.4679,-82.0631,1.185,5.25,1111122 
SCCF RECON,ioos:station:SCCF:11:1,2019-01-05T20:00:00Z,26.4679,-82.0631,1.105,5.32,1111122 
SCCF RECON,ioos:station:SCCF:11:1,2019-01-05T21:00:00Z,26.4679,-82.0631,1.029,5.58,1111122 
SCCF RECON,ioos:station:SCCF:11:1,2019-01-05T22:00:00Z,26.4679,-82.0631,1.005,5.71,1111122 
SCCF RECON,ioos:station:SCCF:11:1,2019-01-05T23:00:00Z,26.4679,-82.0631,0.995,5.83,1111122 
SCCF RECON,ioos:station:SCCF:11:1,2019-01-06T05:00:00Z,26.4679,-82.0631,1.375,4.52,1111122 
SCCF RECON,ioos:station:SCCF:11:1,2019-01-06T06:00:00Z,26.4679,-82.0631,1.32,4.79,1111122 
SCCF RECON,ioos:station:SCCF:11:1,2019-01-06T07:00:00Z,26.4679,-82.0631,1.199,4.62,1111122 
SCCF RECON,ioos:station:SCCF:11:1,2019-01-06T08:00:00Z,26.4679,-82.0631,1.05,4.46,1111122 
SCCF RECON,ioos:station:SCCF:11:1,2019-01-06T09:00:00Z,26.4679,-82.0631,0.917,4.51,1111122 
SCCF RECON,ioos:station:SCCF:11:1,2019-01-06T10:00:00Z,26.4679,-82.0631,0.791,4.43,1111122 
SCCF RECON,ioos:station:SCCF:11:1,2019-01-06T11:00:00Z,26.4679,-82.0631,0.652,4.27,1111122 
SCCF RECON,ioos:station:SCCF:11:1,2019-01-06T12:00:00Z,26.4679,-82.0631,0.544,4.26,1111122 
SCCF RECON,ioos:station:SCCF:11:1,2019-01-06T13:00:00Z,26.4679,-82.0631,0.481,4.39,1111122 
SCCF RECON,ioos:station:SCCF:11:1,2019-01-06T14:00:00Z,26.4679,-82.0631,0.52,4.73,1111122 
SCCF RECON,ioos:station:SCCF:11:1,2019-01-06T15:00:00Z,26.4679,-82.0631,0.64,4.65,1111122 
SCCF RECON,ioos:station:SCCF:11:1,2019-01-06T16:00:00Z,26.4679,-82.0631,0.781,5.15,1111122 
SCCF RECON,ioos:station:SCCF:11:1,2019-01-06T17:00:00Z,26.4679,-82.0631,0.922,5.66,1111122 
SCCF RECON,ioos:station:SCCF:11:1,2019-01-06T18:00:00Z,26.4679,-82.0631,1.02,5.56,1111122 
SCCF RECON,ioos:station:SCCF:11:1,2019-01-06T19:00:00Z,26.4679,-82.0631,1.091,5.45,1111122 
SCCF RECON,ioos:station:SCCF:11:1,2019-01-06T20:00:00Z,26.4679,-82.0631,1.112,5.16,1111122 
SCCF RECON,ioos:station:SCCF:11:1,2019-01-06T21:00:00Z,26.4679,-82.0631,1.062,5.39,1111122 
SCCF RECON,ioos:station:SCCF:11:1,2019-01-06T22:00:00Z,26.4679,-82.0631,0.984,5.47,1111122 
SCCF RECON,ioos:station:SCCF:11:1,2019-01-06T23:00:00Z,26.4679,-82.0631,0.932,5.56,1111122 
SCCF RECON,ioos:station:SCCF:11:1,2019-01-07T05:00:00Z,26.4679,-82.0631,1.379,4.97,1111122 
SCCF RECON,ioos:station:SCCF:11:1,2019-01-07T06:00:00Z,26.4679,-82.0631,1.371,4.87,1111122 
SCCF RECON,ioos:station:SCCF:11:1,2019-01-07T07:00:00Z,26.4679,-82.0631,1.3,5.18,1111122 
SCCF RECON,ioos:station:SCCF:11:1,2019-01-07T09:00:00Z,26.4679,-82.0631,1.061,4.94,1111122 
SCCF RECON,ioos:station:SCCF:11:1,2019-01-07T10:00:00Z,26.4679,-82.0631,0.944,4.86,1111122 
SCCF RECON,ioos:station:SCCF:11:1,2019-01-07T11:00:00Z,26.4679,-82.0631,0.821,4.72,1111122 
SCCF RECON,ioos:station:SCCF:11:1,2019-01-07T12:00:00Z,26.4679,-82.0631,0.709,4.56,1111122 
SCCF RECON,ioos:station:SCCF:11:1,2019-01-07T13:00:00Z,26.4679,-82.0631,0.629,4.42,1111122 
SCCF RECON,ioos:station:SCCF:11:1,2019-01-07T14:00:00Z,26.4679,-82.0631,0.64,4.61,1111122 
SCCF RECON,ioos:station:SCCF:11:1,2019-01-07T15:00:00Z,26.4679,-82.0631,0.769,4.77,1111122 
SCCF RECON,ioos:station:SCCF:11:1,2019-01-07T16:00:00Z,26.4679,-82.0631,0.922,5.53,1111122 
SCCF RECON,ioos:station:SCCF:11:1,2019-01-07T17:00:00Z,26.4679,-82.0631,1.05,5.54,1111122 
SCCF RECON,ioos:station:SCCF:11:1,2019-01-07T18:00:00Z,26.4679,-82.0631,1.138,5.66,1111122 
SCCF RECON,ioos:station:SCCF:11:1,2019-01-07T19:00:00Z,26.4679,-82.0631,1.201,5.54,1111122 
SCCF RECON,ioos:station:SCCF:11:1,2019-01-07T20:00:00Z,26.4679,-82.0631,1.21,5.45,1111122 
SCCF RECON,ioos:station:SCCF:11:1,2019-01-07T21:00:00Z,26.4679,-82.0631,1.189,5.36,1111122 
SCCF RECON,ioos:station:SCCF:11:1,2019-01-07T22:00:00Z,26.4679,-82.0631,1.119,6.18,1111122 
SCCF RECON,ioos:station:SCCF:11:1,2019-01-07T23:00:00Z,26.4679,-82.0631,1.05,6.41,1111122 
SCCF RECON,ioos:station:SCCF:11:1,2019-01-08T05:00:00Z,26.4679,-82.0631,1.359,5.69,1111122 
SCCF RECON,ioos:station:SCCF:11:1,2019-01-08T06:00:00Z,26.4679,-82.0631,1.37,5.44,1111122 
SCCF RECON,ioos:station:SCCF:11:1,2019-01-08T07:00:00Z,26.4679,-82.0631,1.34,5.8,1111122 
SCCF RECON,ioos:station:SCCF:11:1,2019-01-08T08:00:00Z,26.4679,-82.0631,1.25,5.67,1111122 
SCCF RECON,ioos:station:SCCF:11:1,2019-01-08T09:00:00Z,26.4679,-82.0631,1.14,5.66,1111122 
SCCF RECON,ioos:station:SCCF:11:1,2019-01-08T10:00:00Z,26.4679,-82.0631,1.013,5.33,1111122 
SCCF RECON,ioos:station:SCCF:11:1,2019-01-08T11:00:00Z,26.4679,-82.0631,0.89,5.27,1111122 
SCCF RECON,ioos:station:SCCF:11:1,2019-01-08T12:00:00Z,26.4679,-82.0631,0.78,5.07,1111122 
SCCF RECON,ioos:station:SCCF:11:1,2019-01-08T13:00:00Z,26.4679,-82.0631,0.692,5.12,1111122 
SCCF RECON,ioos:station:SCCF:11:1,2019-01-08T14:00:00Z,26.4679,-82.0631,0.66,5.0,1111122 
SCCF RECON,ioos:station:SCCF:11:1,2019-01-08T15:00:00Z,26.4679,-82.0631,0.746,4.97,1111122 
SCCF RECON,ioos:station:SCCF:11:1,2019-01-08T16:00:00Z,26.4679,-82.0631,0.91,6.02,1111122 
SCCF RECON,ioos:station:SCCF:11:1,2019-01-08T17:00:00Z,26.4679,-82.0631,1.049,5.95,1111122 
SCCF RECON,ioos:station:SCCF:11:1,2019-01-08T18:00:00Z,26.4679,-82.0631,1.144,5.9,1111122 
SCCF RECON,ioos:station:SCCF:11:1,2019-01-08T19:00:00Z,26.4679,-82.0631,1.23,5.78,1111122 
SCCF RECON,ioos:station:SCCF:11:1,2019-01-08T20:00:00Z,26.4679,-82.0631,1.28,5.62,1111122 
SCCF RECON,ioos:station:SCCF:11:1,2019-01-08T21:00:00Z,26.4679,-82.0631,1.28,5.79,1111122 
SCCF RECON,ioos:station:SCCF:11:1,2019-01-08T22:00:00Z,26.4679,-82.0631,1.207,6.51,1111122 
SCCF RECON,ioos:station:SCCF:11:1,2019-01-08T23:00:00Z,26.4679,-82.0631,1.13,6.58,1111122 
SCCF RECON,ioos:station:SCCF:11:1,2019-01-09T05:00:00Z,26.4679,-82.0631,1.355,5.37,1111122 
SCCF RECON,ioos:station:SCCF:11:1,2019-01-09T06:00:00Z,26.4679,-82.0631,1.39,5.33,1111122 
SCCF RECON,ioos:station:SCCF:11:1,2019-01-09T07:00:00Z,26.4679,-82.0631,1.373,5.33,1111122 
SCCF RECON,ioos:station:SCCF:11:1,2019-01-09T08:00:00Z,26.4679,-82.0631,1.318,5.69,1111122 
SCCF RECON,ioos:station:SCCF:11:1,2019-01-09T09:00:00Z,26.4679,-82.0631,1.2,5.49,1111122 
SCCF RECON,ioos:station:SCCF:11:1,2019-01-09T10:00:00Z,26.4679,-82.0631,1.069,5.32,1111122 
SCCF RECON,ioos:station:SCCF:11:1,2019-01-09T11:00:00Z,26.4679,-82.0631,0.939,5.14,1111122 
SCCF RECON,ioos:station:SCCF:11:1,2019-01-09T12:00:00Z,26.4679,-82.0631,0.81,4.97,1111122 
SCCF RECON,ioos:station:SCCF:11:1,2019-01-09T13:00:00Z,26.4679,-82.0631,0.693,4.76,1111122 
SCCF RECON,ioos:station:SCCF:11:1,2019-01-09T14:00:00Z,26.4679,-82.0631,0.62,4.59,1111122 
SCCF RECON,ioos:station:SCCF:11:1,2019-01-09T15:00:00Z,26.4679,-82.0631,0.597,5.04,1111122 
SCCF RECON,ioos:station:SCCF:11:1,2019-01-09T18:00:00Z,26.4679,-82.0631,0.94,6.07,1111122 
SCCF RECON,ioos:station:SCCF:11:1,2019-01-09T19:00:00Z,26.4679,-82.0631,1.038,6.25,1111122 
SCCF RECON,ioos:station:SCCF:11:1,2019-01-09T20:00:00Z,26.4679,-82.0631,1.099,6.04,1111122 
SCCF RECON,ioos:station:SCCF:11:1,2019-01-09T21:00:00Z,26.4679,-82.0631,1.103,6.33,1111122 
SCCF RECON,ioos:station:SCCF:11:1,2019-01-09T22:00:00Z,26.4679,-82.0631,1.042,6.73,1111122 
SCCF RECON,ioos:station:SCCF:11:1,2019-01-09T23:00:00Z,26.4679,-82.0631,1.002,6.6,1111122 
SCCF RECON,ioos:station:SCCF:11:1,2019-01-10T05:00:00Z,26.4679,-82.0631,1.121,5.38,1111122 
SCCF RECON,ioos:station:SCCF:11:1,2019-01-10T06:00:00Z,26.4679,-82.0631,1.201,5.27,1111122 
SCCF RECON,ioos:station:SCCF:11:1,2019-01-10T07:00:00Z,26.4679,-82.0631,1.246,5.09,1111122 
SCCF RECON,ioos:station:SCCF:11:1,2019-01-10T08:00:00Z,26.4679,-82.0631,1.21,5.4,1111122 
SCCF RECON,ioos:station:SCCF:11:1,2019-01-10T09:00:00Z,26.4679,-82.0631,1.125,5.36,1111122 
SCCF RECON,ioos:station:SCCF:11:1,2019-01-10T10:00:00Z,26.4679,-82.0631,1.003,5.15,1111122 
SCCF RECON,ioos:station:SCCF:11:1,2019-01-10T11:00:00Z,26.4679,-82.0631,0.894,5.07,1111122 
SCCF RECON,ioos:station:SCCF:11:1,2019-01-10T12:00:00Z,26.4679,-82.0631,0.794,4.94,1111122 
SCCF RECON,ioos:station:SCCF:11:1,2019-01-10T13:00:00Z,26.4679,-82.0631,0.707,4.85,1111122 
SCCF RECON,ioos:station:SCCF:11:1,2019-01-10T14:00:00Z,26.4679,-82.0631,0.622,4.78,1111122 
SCCF RECON,ioos:station:SCCF:11:1,2019-01-10T15:00:00Z,26.4679,-82.0631,0.569,5.02,1111122 
SCCF RECON,ioos:station:SCCF:11:1,2019-01-10T16:00:00Z,26.4679,-82.0631,0.585,5.29,1111122 
SCCF RECON,ioos:station:SCCF:11:1,2019-01-10T17:00:00Z,26.4679,-82.0631,0.719,5.64,1111122 
SCCF RECON,ioos:station:SCCF:11:1,2019-01-10T18:00:00Z,26.4679,-82.0631,0.852,5.75,1111122 
SCCF RECON,ioos:station:SCCF:11:1,2019-01-10T19:00:00Z,26.4679,-82.0631,0.969,5.76,1111122 
SCCF RECON,ioos:station:SCCF:11:1,2019-01-10T20:00:00Z,26.4679,-82.0631,1.049,5.81,1111122 
SCCF RECON,ioos:station:SCCF:11:1,2019-01-10T21:00:00Z,26.4679,-82.0631,1.109,5.81,1111122 
SCCF RECON,ioos:station:SCCF:11:1,2019-01-10T22:00:00Z,26.4679,-82.0631,1.13,5.83,1111122 
SCCF RECON,ioos:station:SCCF:11:1,2019-01-10T23:00:00Z,26.4679,-82.0631,1.11,6.53,1111122 
SCCF RECON,ioos:station:SCCF:11:1,2019-01-11T05:00:00Z,26.4679,-82.0631,1.11,5.61,1111122 
SCCF RECON,ioos:station:SCCF:11:1,2019-01-11T06:00:00Z,26.4679,-82.0631,1.19,5.45,1111122 
SCCF RECON,ioos:station:SCCF:11:1,2019-01-11T07:00:00Z,26.4679,-82.0631,1.24,5.48,1111122 
SCCF RECON,ioos:station:SCCF:11:1,2019-01-11T08:00:00Z,26.4679,-82.0631,1.24,5.47,1111122 
SCCF RECON,ioos:station:SCCF:11:1,2019-01-11T09:00:00Z,26.4679,-82.0631,1.211,5.5,1111122 
SCCF RECON,ioos:station:SCCF:11:1,2019-01-11T10:00:00Z,26.4679,-82.0631,1.172,5.44,1111122 
SCCF RECON,ioos:station:SCCF:11:1,2019-01-11T11:00:00Z,26.4679,-82.0631,1.098,5.34,1111122 
SCCF RECON,ioos:station:SCCF:11:1,2019-01-11T12:00:00Z,26.4679,-82.0631,0.99,5.12,1111122 
SCCF RECON,ioos:station:SCCF:11:1,2019-01-11T13:00:00Z,26.4679,-82.0631,0.891,5.05,1111122 
SCCF RECON,ioos:station:SCCF:11:1,2019-01-11T14:00:00Z,26.4679,-82.0631,0.82,5.08,1111122 
SCCF RECON,ioos:station:SCCF:11:1,2019-01-11T15:00:00Z,26.4679,-82.0631,0.771,5.03,1111122 
SCCF RECON,ioos:station:SCCF:11:1,2019-01-11T17:00:00Z,26.4679,-82.0631,0.856,5.57,1111122 
SCCF RECON,ioos:station:SCCF:11:1,2019-01-11T18:00:00Z,26.4679,-82.0631,0.97,5.65,1111122 
SCCF RECON,ioos:station:SCCF:11:1,2019-01-11T20:00:00Z,26.4679,-82.0631,1.153,5.93,1111122 
SCCF RECON,ioos:station:SCCF:11:1,2019-01-11T22:00:00Z,26.4679,-82.0631,1.255,6.09,1111122 
SCCF RECON,ioos:station:SCCF:11:1,2019-01-12T05:00:00Z,26.4679,-82.0631,1.05,5.63,1111122 
SCCF RECON,ioos:station:SCCF:11:1,2019-01-12T06:00:00Z,26.4679,-82.0631,1.12,5.58,1111122 
SCCF RECON,ioos:station:SCCF:11:1,2019-01-12T07:00:00Z,26.4679,-82.0631,1.181,5.51,1111122 
SCCF RECON,ioos:station:SCCF:11:1,2019-01-12T08:00:00Z,26.4679,-82.0631,1.219,5.4,1111122 
SCCF RECON,ioos:station:SCCF:11:1,2019-01-12T09:00:00Z,26.4679,-82.0631,1.232,5.37,1111122 
SCCF RECON,ioos:station:SCCF:11:1,2019-01-12T10:00:00Z,26.4679,-82.0631,1.23,4.88,1111122 
SCCF RECON,ioos:station:SCCF:11:1,2019-01-12T11:00:00Z,26.4679,-82.0631,1.177,5.31,1111122 
SCCF RECON,ioos:station:SCCF:11:1,2019-01-12T12:00:00Z,26.4679,-82.0631,1.08,5.58,1111122 
SCCF RECON,ioos:station:SCCF:11:1,2019-01-12T13:00:00Z,26.4679,-82.0631,0.99,5.44,1111122 
SCCF RECON,ioos:station:SCCF:11:1,2019-01-12T14:00:00Z,26.4679,-82.0631,0.917,5.55,1111122 
SCCF RECON,ioos:station:SCCF:11:1,2019-01-12T15:00:00Z,26.4679,-82.0631,0.85,5.76,1111122 
SCCF RECON,ioos:station:SCCF:11:1,2019-01-12T16:00:00Z,26.4679,-82.0631,0.83,5.76,1111122 
SCCF RECON,ioos:station:SCCF:11:1,2019-01-12T17:00:00Z,26.4679,-82.0631,0.88,5.67,1111122 
SCCF RECON,ioos:station:SCCF:11:1,2019-01-12T18:00:00Z,26.4679,-82.0631,0.99,6.22,1111122 
SCCF RECON,ioos:station:SCCF:11:1,2019-01-12T19:00:00Z,26.4679,-82.0631,1.087,6.29,1111122 
SCCF RECON,ioos:station:SCCF:11:1,2019-01-12T20:00:00Z,26.4679,-82.0631,1.18,6.38,1111122 
SCCF RECON,ioos:station:SCCF:11:1,2019-01-12T21:00:00Z,26.4679,-82.0631,1.278,6.28,1111122 
SCCF RECON,ioos:station:SCCF:11:1,2019-01-12T22:00:00Z,26.4679,-82.0631,1.34,6.15,1111122 
SCCF RECON,ioos:station:SCCF:11:1,2019-01-13T05:00:00Z,26.4679,-82.0631,1.04,6.12,1111122 
SCCF RECON,ioos:station:SCCF:11:1,2019-01-13T06:00:00Z,26.4679,-82.0631,1.05,6.02,1111122 
SCCF RECON,ioos:station:SCCF:11:1,2019-01-13T07:00:00Z,26.4679,-82.0631,1.101,5.63,1111122 
SCCF RECON,ioos:station:SCCF:11:1,2019-01-13T08:00:00Z,26.4679,-82.0631,1.178,5.85,1111122 
SCCF RECON,ioos:station:SCCF:11:1,2019-01-13T09:00:00Z,26.4679,-82.0631,1.224,5.7,1111122 
SCCF RECON,ioos:station:SCCF:11:1,2019-01-13T10:00:00Z,26.4679,-82.0631,1.264,5.65,1111122 
SCCF RECON,ioos:station:SCCF:11:1,2019-01-13T11:00:00Z,26.4679,-82.0631,1.25,5.4,1111122 
SCCF RECON,ioos:station:SCCF:11:1,2019-01-13T12:00:00Z,26.4679,-82.0631,1.22,5.18,1111122 
SCCF RECON,ioos:station:SCCF:11:1,2019-01-13T13:00:00Z,26.4679,-82.0631,1.125,5.79,1111122 
SCCF RECON,ioos:station:SCCF:11:1,2019-01-13T14:00:00Z,26.4679,-82.0631,1.03,5.54,1111122 
SCCF RECON,ioos:station:SCCF:11:1,2019-01-13T15:00:00Z,26.4679,-82.0631,0.954,5.35,1111122 
SCCF RECON,ioos:station:SCCF:11:1,2019-01-13T16:00:00Z,26.4679,-82.0631,0.916,5.61,1111122 
SCCF RECON,ioos:station:SCCF:11:1,2019-01-13T17:00:00Z,26.4679,-82.0631,0.9,5.91,1111122 
SCCF RECON,ioos:station:SCCF:11:1,2019-01-13T18:00:00Z,26.4679,-82.0631,0.93,5.98,1111122 
SCCF RECON,ioos:station:SCCF:11:1,2019-01-13T19:00:00Z,26.4679,-82.0631,0.99,6.04,1111122 
SCCF RECON,ioos:station:SCCF:11:1,2019-01-13T20:00:00Z,26.4679,-82.0631,1.09,6.31,1111122 
SCCF RECON,ioos:station:SCCF:11:1,2019-01-13T21:00:00Z,26.4679,-82.0631,1.191,6.57,1111122 
SCCF RECON,ioos:station:SCCF:11:1,2019-01-13T22:00:00Z,26.4679,-82.0631,1.27,6.34,1111122 
SCCF RECON,ioos:station:SCCF:11:1,2019-01-14T05:00:00Z,26.4679,-82.0631,0.949,6.26,1111122 
SCCF RECON,ioos:station:SCCF:11:1,2019-01-14T06:00:00Z,26.4679,-82.0631,0.914,6.12,1111122 
SCCF RECON,ioos:station:SCCF:11:1,2019-01-14T07:00:00Z,26.4679,-82.0631,0.928,5.96,1111122 
SCCF RECON,ioos:station:SCCF:11:1,2019-01-14T08:00:00Z,26.4679,-82.0631,0.989,5.58,1111122 
SCCF RECON,ioos:station:SCCF:11:1,2019-01-14T09:00:00Z,26.4679,-82.0631,1.079,5.85,1111122 
SCCF RECON,ioos:station:SCCF:11:1,2019-01-14T10:00:00Z,26.4679,-82.0631,1.11,5.52,1111122 
SCCF RECON,ioos:station:SCCF:11:1,2019-01-14T11:00:00Z,26.4679,-82.0631,1.13,5.66,1111122 
SCCF RECON,ioos:station:SCCF:11:1,2019-01-14T12:00:00Z,26.4679,-82.0631,1.128,5.79,1111122 
SCCF RECON,ioos:station:SCCF:11:1,2019-01-14T13:00:00Z,26.4679,-82.0631,1.087,5.68,1111122 
SCCF RECON,ioos:station:SCCF:11:1,2019-01-14T14:00:00Z,26.4679,-82.0631,1.03,5.67,1111122 
SCCF RECON,ioos:station:SCCF:11:1,2019-01-14T15:00:00Z,26.4679,-82.0631,0.977,5.61,1111122 
SCCF RECON,ioos:station:SCCF:11:1,2019-01-14T16:00:00Z,26.4679,-82.0631,0.932,5.56,1111122 
SCCF RECON,ioos:station:SCCF:11:1,2019-01-14T17:00:00Z,26.4679,-82.0631,0.9,5.83,1111122 
SCCF RECON,ioos:station:SCCF:11:1,2019-01-14T18:00:00Z,26.4679,-82.0631,0.86,5.72,1111122 
SCCF RECON,ioos:station:SCCF:11:1,2019-01-14T19:00:00Z,26.4679,-82.0631,0.861,6.03,1111122 
SCCF RECON,ioos:station:SCCF:11:1,2019-01-14T20:00:00Z,26.4679,-82.0631,0.92,6.02,1111122 
SCCF RECON,ioos:station:SCCF:11:1,2019-01-14T21:00:00Z,26.4679,-82.0631,1.008,6.38,1111122 
SCCF RECON,ioos:station:SCCF:11:1,2019-01-14T22:00:00Z,26.4679,-82.0631,1.081,6.15,1111122 
SCCF RECON,ioos:station:SCCF:11:1,2019-01-15T05:00:00Z,26.4679,-82.0631,0.82,5.71,1111122 
SCCF RECON,ioos:station:SCCF:11:1,2019-01-15T06:00:00Z,26.4679,-82.0631,0.74,5.82,1111122 
SCCF RECON,ioos:station:SCCF:11:1,2019-01-15T07:00:00Z,26.4679,-82.0631,0.681,5.5,1111122 
SCCF RECON,ioos:station:SCCF:11:1,2019-01-15T08:00:00Z,26.4679,-82.0631,0.689,5.03,1111122 
SCCF RECON,ioos:station:SCCF:11:1,2019-01-15T09:00:00Z,26.4679,-82.0631,0.749,5.4,1111122 
SCCF RECON,ioos:station:SCCF:11:1,2019-01-15T10:00:00Z,26.4679,-82.0631,0.831,5.59,1111122 